Simultaneous Nadir Overpasses (SNOs) Predictions

Prediction of SNOs between AQUA and NPP Satellite Orbit:

Table of predicted SNOs for the next 14.0 days since TLE Epoch: 6/29/2024
Index Date (AQUA) Time (AQUA) Lat,Lon (AQUA) SZA (AQUA ) Date (NPP) Time (NPP) Lat,Lon (NPP) SZA (NPP ) Distance(km) Time Diff (sec)
1 07/01/2024 06:18:59 -81.26,-170.60 114.79 07/01/2024 06:18:38 -81.26,-170.51 114.79 1.50 21
2 07/01/2024 07:08:20 81.26, -2.80 65.20 07/01/2024 07:09:22 81.27, -2.77 65.16 0.53 62
3 07/03/2024 18:22:30 81.26,-171.44 65.42 07/03/2024 18:21:53 81.25,-171.58 65.47 2.42 37
4 07/03/2024 19:11:51 -81.26, -3.63 114.60 07/03/2024 19:12:35 -81.27, -3.51 114.65 2.07 44
5 07/06/2024 06:26:00 -81.25,-172.42 114.31 07/06/2024 06:25:06 -81.25,-172.37 114.29 1.04 54
6 07/06/2024 07:15:20 81.27, -4.34 65.64 07/06/2024 07:15:49 81.27, -4.27 65.61 1.29 29
7 07/08/2024 18:29:27 81.26,-172.99 65.94 07/08/2024 18:28:19 81.26,-172.82 65.96 2.86 68
8 07/08/2024 19:18:49 -81.27, -5.13 114.09 07/08/2024 19:19:03 -81.27, -5.12 114.10 0.64 14



Historial Predications of SNOs between AQUA and NPP
